Voltar ao catálogo

STARLINK-32883

AtivoComunicaçõesVLEO
NORAD 62806·PAYLOAD·🇺🇸 United States

Lançado Jan 24, 2025 de Vandenberg Space Force Base

Loading…

Próximas Passagens (próximas 24 horas)

TLE

AtualizadoSource: CelesTrak SupGP

Época: Sep 14, 2026, 22:55 UTC

1 62806C 25018A   26257.95534722 -.00083807  00000+0 -24758-2 0  2579
2 62806  53.1569 147.2858 0001234  90.2526 172.0329 15.34436772    19

Acompanhe STARLINK-32883 em tempo real com AllMySat

Download on the App Store